weather.gov     
National Weather Service

Terminal Aerodrome Forecast
NWS Homepage
This page is being discontinued on March 12, 2014.
The same data is available at this site. Please update your bookmarks.
Thank you, and we apologize for the inconvenience.
Please send an email to SR-SRH.Webmaster@noaa.gov with any concerns.


Current Version
Previous Version:    01  02  03  04  05  06  07  08  09  10  11  12  13  14  
[Printable]
031
FTUS41 KCAR 311136
TAFPQI
TAF
KPQI 311136Z 3112/0112 34015G25KT 1 1/2SM -SN BLSN SCT008 OVC015
     FM312100 34018G28KT 4SM -SN BLSN OVC025
     FM010200 32018G28KT 6SM BLSN SCT025
      AMD LTD TO CLD VIS AND WIND=


031
FTUS41 KCAR 311136
TAFPQI
TAF
KPQI 311136Z 3112/0112 34015G25KT 1 1/2SM -SN BLSN SCT008 OVC015
     FM312100 34018G28KT 4SM -SN BLSN OVC025
     FM010200 32018G28KT 6SM BLSN SCT025
      AMD LTD TO CLD VIS AND WIND=




U.S. Dept. of Commerce
NOAA National Weather Service
1325 East West Highway
Silver Spring, MD 20910
E-mail: w-nws.webmaster@noaa.gov
Page last modified: May 16, 2007
NATIONAL WEATHER SERVICE: for Safety, for Work, for Fun - FOR LIFE